Wind_Speed
11 11 10 10 9 10 9 9 9 8 8 9 9 9 9 9 10 10 9 9 10 10 10 10 10 11 11 11 10 10 11 11 11 11 11 12 11 11 11 12 12 12 11 11
11 11 11 11 11 11 11 10 10 10 10 11 11 11 10 10 10 10 10 10 10 10 11 11 11 12 12 11 12 11 12 12 12 12 12 12 13 13 12 12 12 11 11 12
11 11 12 12 12 12 11 11 12 12 12 12 12 11 11 10 10 11 10 10 9 10 11 11 12 12 13 13 13 14 14 14 13 12 12 12 13 13 14 14 13 12 12 12
12 11 12 12 12 13 13 13 13 13 13 13 13 12 12 12 11 11 11 10 10 10 11 12 13 13 13 14 14 14 14 14 13 13 13 12 13 14 14 14 14 13 13 13
11 11 12 12 13 13 13 13 14 14 14 14 14 14 12 13 12 12 11 11 12 12 12 13 13 14 14 15 15 15 14 14 14 14 13 13 13 13 14 14 14 14 13 13
11 12 12 13 13 12 13 14 14 15 15 14 14 15 12 12 12 11 11 12 12 13 13 14 14 14 14 15 15 15 15 15 15 15 14 14 14 14 14 14 14 14 14 14
11 11 12 13 13 13 13 14 15 16 15 15 15 15 14 13 12 11 11 12 12 13 13 14 15 15 15 15 15 16 16 16 15 15 15 15 14 14 14 14 14 14 15 15
12 12 12 13 13 14 14 14 15 16 16 16 16 16 14 14 13 13 13 13 13 14 14 15 15 16 16 16 16 16 16 17 17 16 16 16 15 15 15 15 15 16 16 16
12 12 13 13 13 14 15 15 16 17 17 18 17 16 15 15 15 15 15 14 15 15 15 16 16 17 17 17 17 17 17 18 18 18 17 17 16 16 17 17 16 16 17 17
13 13 13 14 14 14 15 16 16 16 18 18 18 17 17 16 16 16 16 16 17 17 16 17 17 18 18 18 19 19 19 19 19 19 18 17 17 17 18 18 17 17 18 18
15 15 14 14 15 15 16 16 16 17 18 19 19 18 17 17 17 18 18 19 18 18 17 18 19 19 20 20 20 20 20 20 20 20 19 18 18 18 18 19 19 19 19 19
16 17 16 15 16 16 17 17 17 18 18 19 20 19 17 19 20 20 21 20 20 19 19 20 20 20 20 20 20 20 21 20 20 20 20 20 20 20 20 20 20 20 20 20
16 17 17 16 16 16 16 17 18 18 19 20 21 20 19 20 21 21 22 21 21 20 20 20 21 21 20 21 21 21 22 21 21 21 21 21 22 22 22 22 22 21 22 21
18 18 18 18 18 18 17 17 19 20 20 21 21 21 21 22 22 22 22 21 21 21 21 22 22 22 21 21 22 22 23 23 22 23 23 23 23 23 23 23 23 23 23 23
18 18 18 18 19 19 19 18 19 20 21 22 21 21 21 23 23 22 22 22 22 21 22 23 23 24 23 23 23 24 24 24 24 24 24 25 25 25 25 24 24 23 23 23
19 19 19 20 20 20 20 19 19 21 22 22 23 22 22 22 22 23 23 23 23 23 24 24 24 25 25 25 25 25 25 25 25 25 25 26 26 26 26 26 25 25 24 25
20 21 21 20 20 21 21 19 20 22 22 22 23 23 24 24 24 24 25 24 24 24 25 24 24 25 26 27 27 26 26 27 27 27 27 26 26 26 26 26 26 26 26 26
21 21 22 21 21 22 21 20 20 21 21 22 22 23 23 24 24 24 25 25 25 26 26 26 26 27 27 28 28 28 28 28 28 28 28 27 27 27 27 28 28 28 28 28
21 22 23 23 22 22 20 20 20 21 21 22 22 23 23 24 24 24 24 25 26 26 27 27 28 29 28 29 29 29 29 29 29 29 29 28 28 29 29 29 29 29 28 28
21 22 23 23 23 22 20 20 21 22 22 22 23 24 24 24 24 24 25 25 26 27 27 28 28 29 29 29 30 31 30 30 30 30 30 30 30 30 29 29 28 29 29 28
21 22 23 23 24 22 21 21 22 23 23 23 23 24 25 24 25 25 25 26 27 28 28 29 30 30 31 31 31 32 32 31 31 31 31 31 31 30 29 29 29 29 29 29
22 22 22 23 24 23 22 23 23 23 23 23 24 24 25 25 25 25 26 27 28 29 29 30 30 31 31 32 32 32 33 32 31 31 31 31 30 30 30 30 29 29 29 28
23 22 23 23 23 23 23 23 23 24 24 24 25 25 25 25 26 26 27 28 28 28 28 29 30 31 31 32 32 32 32 32 31 31 31 31 31 31 31 30 29 29 28 28
23 23 24 24 23 24 24 24 24 25 25 25 25 25 25 26 26 26 27 28 27 28 28 29 30 30 31 31 31 31 32 32 31 31 31 30 30 30 30 30 30 29 29 28
24 24 25 25 24 25 25 25 25 26 26 25 25 25 25 25 26 26 26 26 27 27 28 30 30 30 31 31 31 31 31 31 31 31 31 30 30 30 30 30 29 29 28 28
24 25 25 25 25 26 25 25 26 26 26 26 26 26 26 26 26 27 27 27 27 28 29 30 30 30 31 31 31 31 31 31 31 31 31 31 30 29 29 28 29 28 28 27
Wind_Direction
253 252 256 260 262 266 267 268 270 274 280 288 295 296 295 301 302 304 308 308 308 313 316 316 311 310 310 310 310 305 302 300 297 294 292 292 294 293 292 293 293 293 292 291
256 256 260 260 263 263 265 269 272 273 278 283 288 290 291 296 300 300 301 301 303 306 310 310 306 303 305 306 306 303 302 301 296 292 292 291 292 291 290 288 290 290 288 285
258 259 259 261 263 265 267 268 272 275 280 282 286 287 288 291 294 295 295 296 301 304 307 306 304 302 299 299 303 303 299 300 296 293 292 291 290 292 289 288 291 291 288 286
257 258 259 261 263 266 266 268 271 275 275 279 285 288 290 292 294 291 291 295 300 303 305 306 304 302 299 299 300 300 297 297 293 290 290 290 289 289 290 290 291 291 288 288
261 261 261 263 266 267 267 266 269 271 274 279 282 287 291 291 296 291 290 294 298 302 303 303 303 301 299 298 299 299 295 292 290 289 289 288 287 287 288 289 288 287 286 286
265 262 262 263 265 267 268 267 268 271 275 278 281 286 289 294 296 294 290 293 297 300 301 303 302 300 298 297 298 298 295 290 286 285 285 288 288 286 288 289 286 285 285 284
268 266 262 262 265 268 268 268 270 272 276 279 280 281 287 289 289 292 295 296 296 298 301 302 299 299 298 297 298 296 295 290 285 284 283 286 285 284 287 287 284 284 285 284
270 268 265 263 264 265 267 269 272 276 279 281 279 280 284 287 290 294 295 293 293 295 296 296 295 295 296 297 298 295 293 289 283 282 283 282 280 281 281 283 282 281 281 282
275 273 270 268 267 266 267 269 272 275 278 278 279 281 283 287 288 291 292 289 289 290 289 290 290 291 292 294 296 296 294 291 286 284 285 281 279 278 278 280 280 280 280 279
275 276 276 274 270 268 268 269 272 273 276 277 279 280 283 286 287 289 290 289 289 288 288 290 290 289 288 291 294 295 294 291 288 284 285 283 281 279 279 280 281 280 281 279
274 274 275 274 271 269 267 268 269 271 273 276 277 279 282 284 285 287 289 290 289 289 290 291 289 289 289 289 291 294 293 292 288 285 285 283 281 279 280 279 280 280 281 279
276 277 276 275 273 272 270 268 268 270 271 274 277 277 280 281 283 285 287 288 288 287 287 288 287 285 287 289 291 292 291 290 288 286 284 283 281 280 280 280 281 280 279 278
278 279 277 278 276 273 272 270 269 270 270 271 276 280 280 281 283 285 286 286 285 284 284 285 285 285 285 287 289 291 291 290 288 287 284 283 283 280 281 280 279 279 279 280
277 279 278 279 280 280 276 272 269 269 270 272 276 279 278 281 284 286 287 287 286 285 286 285 283 285 285 285 287 290 291 289 287 287 285 284 283 281 281 281 281 278 278 278
275 277 277 277 278 281 280 275 273 272 274 276 278 279 278 280 283 285 286 286 287 288 287 287 284 284 286 286 286 288 288 288 287 286 286 285 283 283 282 281 281 279 279 279
272 274 275 275 275 278 279 275 274 273 273 276 277 279 280 279 280 281 282 285 285 285 287 286 284 284 285 286 286 286 286 285 286 286 285 285 284 282 282 281 279 279 280 280
273 274 276 276 275 274 276 278 277 274 273 276 278 280 280 280 281 284 284 284 285 286 287 287 286 285 284 286 286 286 285 285 284 285 286 284 283 283 282 281 279 278 279 279
275 276 276 277 275 274 278 277 278 276 275 276 278 279 280 281 283 285 286 285 285 286 288 289 289 287 286 286 286 287 286 285 285 285 285 284 283 282 281 281 280 278 279 280
275 276 276 277 278 279 277 278 279 279 278 279 279 280 281 283 284 284 284 284 284 285 287 287 287 287 286 286 285 285 285 284 284 285 285 285 284 284 283 281 280 279 279 280
273 275 275 275 278 280 281 281 281 281 280 281 281 280 281 283 284 284 283 283 283 284 284 285 286 287 286 285 284 284 284 284 283 284 284 284 283 283 283 282 281 279 279 279
272 273 274 275 276 278 280 280 281 281 282 282 281 282 282 282 285 286 285 284 284 286 285 286 287 287 286 285 284 285 283 282 282 282 282 282 282 281 281 281 280 279 278 279
271 272 273 274 276 278 280 280 280 282 282 282 281 282 283 284 287 287 288 287 287 287 287 287 288 288 287 286 286 286 284 282 282 281 281 281 281 279 280 280 278 278 278 278
270 272 273 274 276 278 278 280 280 281 281 282 282 282 284 286 288 290 290 290 289 289 289 289 289 289 288 288 287 287 286 284 282 281 281 281 280 280 279 279 277 276 277 277
270 272 273 275 277 277 277 278 279 279 282 283 284 286 287 288 289 291 292 291 289 290 291 291 291 291 291 289 288 286 286 284 282 281 280 281 280 280 279 278 277 276 276 275
271 271 273 274 276 276 275 277 279 281 284 286 287 287 288 289 290 292 293 292 293 294 294 295 294 294 292 291 288 286 285 284 283 281 280 280 280 279 279 278 277 276 275 275
271 272 272 273 275 276 276 278 280 282 283 285 286 287 288 288 290 290 291 293 294 295 296 296 295 294 293 291 288 286 285 283 282 280 280 280 280 280 279 277 277 276 275 275
Height
5857 5858 5858 5858 5858 5858 5857 5857 5857 5857 5856 5855 5854 5854 5853 5852 5851 5850 5849 5848 5846 5845 5844 5842 5840 5839 5838 5837 5836 5835 5833 5832 5831 5831 5830 5829 5828 5827 5827 5826 5824 5824 5823 5823
5855 5855 5855 5855 5854 5855 5854 5854 5854 5854 5853 5853 5852 5851 5850 5849 5848 5847 5846 5845 5844 5843 5841 5840 5838 5837 5835 5834 5833 5831 5830 5830 5829 5827 5826 5826 5825 5824 5823 5822 5821 5820 5820 5819
5852 5853 5852 5852 5851 5851 5851 5851 5851 5851 5850 5849 5849 5848 5847 5846 5845 5844 5843 5842 5841 5840 5838 5837 5836 5834 5833 5831 5830 5828 5827 5826 5825 5824 5823 5822 5821 5821 5820 5818 5817 5817 5816 5816
5848 5849 5848 5848 5848 5848 5848 5848 5847 5847 5847 5846 5846 5845 5844 5842 5841 5840 5839 5838 5837 5836 5835 5834 5832 5831 5829 5828 5826 5825 5823 5822 5821 5820 5819 5818 5818 5817 5816 5815 5814 5813 5813 5812
5845 5845 5845 5845 5845 5845 5845 5844 5844 5843 5842 5842 5841 5840 5841 5839 5838 5837 5836 5835 5833 5832 5831 5830 5829 5827 5826 5824 5823 5821 5819 5818 5817 5816 5815 5815 5814 5813 5813 5811 5811 5810 5809 5809
5842 5842 5841 5841 5841 5841 5841 5841 5840 5839 5839 5839 5838 5836 5837 5836 5835 5833 5832 5831 5829 5829 5827 5826 5825 5823 5822 5820 5819 5817 5815 5814 5813 5813 5812 5811 5810 5809 5809 5807 5807 5806 5805 5805
5838 5838 5838 5837 5837 5837 5837 5837 5837 5836 5835 5835 5834 5832 5833 5832 5831 5829 5828 5827 5826 5825 5824 5822 5821 5819 5818 5816 5815 5813 5811 5810 5809 5808 5808 5806 5805 5805 5804 5803 5802 5802 5801 5801
5834 5834 5833 5833 5833 5833 5833 5833 5833 5832 5831 5830 5829 5828 5828 5827 5826 5825 5824 5823 5822 5821 5820 5818 5817 5815 5814 5812 5811 5809 5807 5806 5805 5804 5803 5802 5801 5800 5800 5799 5798 5798 5797 5796
5830 5830 5829 5829 5829 5829 5828 5828 5828 5828 5826 5826 5825 5824 5824 5822 5821 5821 5820 5819 5818 5817 5816 5814 5813 5811 5810 5808 5807 5805 5803 5802 5800 5799 5798 5797 5796 5795 5795 5794 5794 5793 5792 5791
5826 5826 5825 5824 5824 5824 5824 5824 5823 5823 5822 5820 5820 5820 5819 5818 5817 5816 5815 5814 5813 5812 5811 5810 5808 5807 5805 5804 5802 5800 5799 5797 5795 5794 5793 5792 5791 5790 5790 5789 5788 5788 5787 5785
5821 5821 5821 5820 5820 5820 5820 5819 5818 5818 5817 5816 5815 5817 5815 5814 5812 5811 5810 5809 5808 5807 5806 5805 5803 5802 5800 5799 5797 5796 5794 5792 5791 5789 5788 5787 5786 5785 5784 5783 5783 5782 5781 5780
5817 5817 5816 5816 5816 5815 5814 5814 5814 5813 5812 5811 5810 5813 5810 5809 5808 5806 5805 5804 5803 5802 5801 5799 5798 5797 5796 5794 5792 5791 5788 5787 5785 5784 5783 5781 5780 5779 5778 5777 5777 5776 5775 5774
5812 5812 5812 5811 5813 5811 5809 5809 5808 5808 5807 5806 5805 5808 5805 5803 5802 5801 5800 5799 5797 5796 5795 5794 5792 5791 5790 5789 5787 5785 5783 5781 5779 5778 5777 5776 5775 5773 5772 5771 5770 5769 5769 5768
5807 5807 5808 5807 5806 5805 5804 5804 5803 5802 5801 5801 5800 5800 5799 5797 5796 5795 5794 5792 5791 5790 5789 5788 5787 5785 5784 5783 5781 5779 5777 5775 5773 5772 5770 5769 5768 5767 5766 5765 5763 5762 5762 5761
5802 5802 5801 5801 5800 5799 5798 5798 5797 5796 5795 5795 5795 5794 5793 5792 5790 5789 5788 5787 5786 5784 5783 5782 5781 5779 5778 5776 5775 5773 5771 5769 5767 5765 5764 5762 5761 5760 5759 5758 5756 5755 5754 5754
5797 5796 5796 5795 5794 5793 5792 5792 5791 5790 5790 5789 5788 5788 5787 5785 5784 5783 5782 5780 5779 5778 5777 5775 5774 5772 5771 5769 5768 5766 5764 5762 5760 5758 5756 5755 5753 5752 5751 5750 5749 5748 5747 5746
5791 5790 5790 5789 5788 5787 5787 5787 5785 5784 5783 5783 5782 5782 5780 5779 5778 5776 5775 5774 5772 5771 5770 5768 5766 5765 5763 5762 5760 5758 5757 5755 5753 5751 5749 5747 5745 5744 5743 5742 5741 5740 5739 5738
5785 5784 5783 5782 5782 5781 5784 5781 5779 5778 5778 5777 5775 5774 5773 5772 5771 5769 5768 5767 5765 5764 5762 5760 5759 5757 5756 5754 5752 5750 5748 5747 5745 5743 5741 5739 5737 5736 5735 5734 5733 5732 5731 5729
5779 5778 5777 5776 5775 5774 5776 5775 5773 5772 5771 5770 5769 5768 5766 5765 5764 5762 5761 5759 5758 5756 5755 5753 5751 5749 5747 5746 5744 5742 5740 5738 5736 5734 5733 5731 5729 5727 5726 5725 5724 5722 5721 5720
5772 5771 5771 5769 5768 5768 5771 5769 5767 5766 5765 5764 5762 5761 5759 5758 5757 5756 5754 5752 5750 5749 5747 5745 5743 5741 5739 5737 5735 5733 5731 5729 5727 5726 5724 5722 5720 5718 5717 5715 5714 5713 5712 5711
5765 5764 5764 5763 5761 5761 5763 5762 5761 5760 5760 5757 5755 5754 5752 5751 5749 5748 5746 5744 5742 5740 5738 5736 5734 5732 5730 5728 5726 5724 5722 5720 5718 5716 5714 5712 5710 5709 5707 5706 5705 5704 5703 5702
5758 5757 5757 5756 5755 5757 5756 5754 5754 5753 5751 5749 5748 5746 5745 5743 5741 5739 5737 5735 5733 5731 5729 5727 5725 5723 5720 5718 5716 5714 5712 5710 5708 5706 5704 5702 5701 5699 5698 5696 5695 5694 5694 5693
5751 5751 5750 5750 5751 5749 5748 5747 5746 5744 5743 5741 5740 5739 5737 5735 5733 5731 5729 5726 5724 5722 5720 5718 5715 5713 5710 5708 5705 5703 5701 5699 5698 5696 5694 5693 5691 5690 5688 5687 5686 5685 5684 5683
5743 5743 5742 5742 5742 5741 5740 5739 5737 5736 5735 5733 5732 5730 5729 5727 5725 5723 5720 5718 5716 5713 5711 5709 5706 5703 5701 5698 5695 5693 5691 5689 5687 5686 5684 5683 5681 5680 5678 5677 5676 5675 5675 5674
5736 5735 5734 5734 5734 5732 5732 5731 5729 5728 5727 5725 5724 5722 5721 5719 5717 5715 5712 5710 5707 5705 5702 5700 5697 5694 5691 5688 5685 5682 5680 5678 5677 5675 5674 5673 5671 5670 5669 5668 5666 5666 5665 5664
5728 5727 5726 5726 5726 5725 5725 5723 5722 5721 5719 5718 5716 5715 5713 5711 5709 5707 5705 5702 5699 5696 5694 5691 5687 5684 5681 5678 5675 5672 5670 5668 5667 5665 5664 5663 5661 5660 5659 5658 5657 5656 5655 5655